Location: Kawakawa
(35.3830°S, 174.0670°E)
Time: 18:42:07
(UTC+12:00)

CORIOLIS - Pass Details

Date: 15 August 2020
Orbit: 817 x 839 km, 98.7° (Epoch: 25 September)

Event Time Altitude Azimuth Distance (km) Brightness Sun altitude
Rises 18:23:46 0° 161° (SSE) 3,395 7.0 -7.1°
Reaches altitude 10° 18:26:13 10° 155° (SSE) 2,458 6.3 -7.6°
Maximum altitude 18:31:29 49° 80° (E) 1,075 4.4 -8.6°
Drops below altitude 10° 18:36:43 10° 6° (N) 2,442 6.7 -9.7°
Sets 18:39:08 0° 360° (N) 3,370 7.5 -10.2°
